This is the latest recevied weather packets stored in our database for station/object KE5VT. If no packets are shown the sender has not sent any weather packets the latest 10 day(s).
| Time | Temp. | Humidity | Pressure | Rain* | Wind** | Luminosity | Snow |
|---|---|---|---|---|---|---|---|
| 1777986723 | 16.11° C | 80% | 1013.5 hPa | 0 mm | - | 31 W/m² | - |
| 1777986420 | 16.11° C | 80% | 1013.3 hPa | 0 mm | - | 33 W/m² | - |
| 1777986119 | 16.11° C | 80% | 1013.5 hPa | 0 mm | - | 46 W/m² | - |
| 1777985815 | 16.11° C | 80% | 1013.3 hPa | 0 mm | - | 30 W/m² | - |
| 1777985512 | 16.11° C | 80% | 1013.4 hPa | 0 mm | - | 43 W/m² | - |
| 1777985209 | 15.56° C | 80% | 1013.3 hPa | 0 mm | - | 27 W/m² | - |
| 1777984905 | 15.56° C | 81% | 1013.4 hPa | 0 mm | - | 27 W/m² | - |
| 1777984601 | 15° C | 82% | 1013.3 hPa | 0 mm | - | 26 W/m² | - |
| 1777984298 | 15° C | 82% | 1013.4 hPa | 0 mm | - | 26 W/m² | - |
| 1777983994 | 15° C | 82% | 1013.5 hPa | 0 mm | - | 25 W/m² | - |
| 1777983692 | 14.44° C | 82% | 1013.4 hPa | 0 mm | - | 25 W/m² | - |
| 1777983388 | 14.44° C | 83% | 1013.5 hPa | 0 mm | - | 28 W/m² | - |
| 1777983085 | 14.44° C | 83% | 1013.3 hPa | 0 mm | - | 24 W/m² | - |
| 1777982782 | 13.89° C | 84% | 1013.1 hPa | 0 mm | - | 23 W/m² | - |
| 1777982478 | 13.89° C | 85% | 1013.3 hPa | 0 mm | - | 21 W/m² | - |
| 1777982178 | 13.89° C | 85% | 1013.1 hPa | 0 mm | - | 19 W/m² | - |
| 1777981875 | 13.89° C | 86% | 1013 hPa | 0 mm | - | 19 W/m² | - |
| 1777981572 | 13.33° C | 86% | 1013.1 hPa | 0 mm | - | 21 W/m² | - |
| 1777981269 | 13.33° C | 86% | 1013 hPa | 0 mm | - | 28 W/m² | - |
| 1777980965 | 13.33° C | 87% | 1012.9 hPa | 0 mm | - | 18 W/m² | - |
| 1777980662 | 12.78° C | 87% | 1012.8 hPa | 0 mm | - | 18 W/m² | - |
| 1777980358 | 12.78° C | 87% | 1012.6 hPa | 0 mm | - | 16 W/m² | - |
| 1777980056 | 12.78° C | 87% | 1012.7 hPa | 0 mm | - | 15 W/m² | - |
| 1777979750 | 12.78° C | 88% | 1012.7 hPa | 0 mm | - | 14 W/m² | - |
| 1777979446 | 12.78° C | 88% | 1012.8 hPa | 0 mm | - | 13 W/m² | - |
* Rain latest hour (hover to see other rain measurements)
** Current wind speed in m/s (hover to see current wind gust speed)